Location: Newark
(48.0000°N, 67.0000°E)
Time: 17:54:55
(UTC+00:00)

Vanguard 2 - Pass Details

Date: 24 February 2020
Orbit: 552 x 2938 km, 32.9° (Epoch: 04 April)

Event Time Altitude Azimuth Distance (km) Brightness Sun altitude
Exits shadow 01:12:23 12° 252° (WSW) 4,383 10.8 -12.7°
Maximum altitude 01:23:39 40° 192° (SSW) 3,481 10.8 -10.8°
Drops below altitude 10° 01:39:06 10° 132° (SE) 5,765 12.9 -8.2°
Sets 01:44:02 0° 125° (SE) 6,755 13.5 -7.4°
